Weather in Sari

Iran     36°34′02″N   53°03′40″E
temp.,
°C
wind,
m/s
gust,
m/s
humid.,
%
clouds,
%
prec.,
mm/h
press.,
hPa
HPBL,
m
5 march, fri
fri500:30+5se119111 0.0 102122
03:30+5sw019219 0.0 101922
06:30+4sw11910 0.0 101822
09:30+10n22690 0.0 1015494
12:30+12nw556434 0.0 1014923
15:30+10wnw236967 0.4 1013801
18:30+8n3681100 0.6 1016684
21:30+7wsw1292100 4.3 1019198
6 march, sat
sat600:30+7s1284100 0.8 1020127
03:30+7s128698 0.8 102128
06:30+6sse228540 0.0 102224
09:30+13e115720 0.0 1022745
12:30+17n22370 0.0 10211290
15:30+17nne43390 0.0 1019968
18:30+10ne23770 0.0 101960
21:30+9ese12700 0.0 101923
7 march, sun
sun700:30+9se12490 0.0 101723
03:30+8ese22360 0.0 101423
06:30+8se12430 0.0 101323
09:30+17nnw213315 0.0 1013203
12:30+20wnw442522 0.0 1012883
15:30+16wnw444261 0.0 1014892
18:30+10wsw3570100 0.0 1018177
21:30+10nw128492 0.3 1020278
8 march, mon
mon800:30+9n1185100 0.2 1020222
03:30+8ne3490100 0.6 1019348
06:30+8ne2488100 0.2 1020273
09:30+10ne237694 0.2 1020564
12:30+12nne336693 0.1 1018861
15:30+11nne446997 0.1 1015718
18:30+8ne2380100 0.0 1014105
21:30+6ene1189100 0.0 101432
9 march, tue
tue900:30+5w119336 0.0 101322
03:30+5wsw119421 0.0 101222
06:30+4ssw229434 0.0 101324
09:30+9w227666 0.0 1015496
12:30+10wnw3372100 0.1 1014654
15:30+10s1170100 0.1 1013530
18:30+8ne228261 0.0 101424
21:30+6e119131 0.0 101523